Showing default

GEN-3 FM-6, 100682

Orbit data source: Space-Track

GEN-3 FM-6, 100682 is an American payload satellite in LEO that was launched on Fri, 11 Sep 2026 UTC launched from the Rocket Lab Launch Complex (RLLC). Payload-class satellites include a variety of spacecraft equipped with specific instruments for various scientific and technological missions. These include communications satellites like Starlink; space stations such as the ISS; scientific satellites like the Hubble; Earth observation satellites from companies like Planet Labs, Umbra, and HawkEye 360; GPS; miniature CubeSats for education and research; and military/defense satellites.

Loading next visibility...
Identifier
100682, 2026-207A
Orbit
LEO
Country
Flag of USUS
Related business
None
Manufacturer
Unknown
Mission
Spacecraft
Bus & Motor
Unknown
Mass
Unknown
Launch date (UTC)
2026-09-11 (2 days ago)
Launch vehicle
Unknown
Launch site
Rocket Lab Launch Complex (RLLC)
Object type
Payload
Rocket body
Debris
Shape & HBR
Unknown
Radar Cross Section
RCS unknown

Expand to show TLE details & history
Last TLE update: 14 hours ago

TLE from 14 hours ago
0 GEN-3 FM-6
1 A0682U 26207A   26255.60667583  .00004715  00000-0  20348-3 0  9991
2 A0682  36.0169 302.4704 0010874 285.1924  74.7605 15.22132951   228
Epoch: 2026-09-12T14:33Z
TLE epoch observation values (Epoch: 2026-09-12T14:33:36.791Z)
Latitude
-0.00007°
Longitude
92.45375°
Altitude
496.465 km
Speed
7.62 km/s
True Right ascension
20h 09m 52s
True Declination
0° 00' 00"
Sunlit
Object was in full shadow at epoch
Visualization orbit readout
Latitude
Unknown
Longitude
Unknown
Altitude
Unknown
Speed
Unknown
Apparent Right ascension
Unknown
Apparent Declination
Unknown
Sunlit
N/A
Visualization observer readout
Local Sidereal Time
20:48:28
Azimuth
Unknown
Elevation
Unknown
Doppler factor
Unknown
Orbital elements
Apogee altitude
509.978 km
Perigee altitude
495.014 km
Semi-major axis
6,880.633 km
Eccentricity
0.00109
Inclination
36.0169°
RAAN
302.4704°
Arg. of periapsis
285.1924°
True anomaly
74.88077°
Mean anomaly
74.7605°
Eccentric anomaly
74.82063°
Mean motion
3.80277 °/min
Orbital period
94.67 mins
BSTAR
0.00020348
Loading maneuver chart data...
Computing Atmospheric mass density...
Loading historical data...
Loading historical data...
Loading historical data...
Loading historical data...
Loading historical data...
Loading historical data...
Loading historical data...
Other satellites on launch #207 in the year 2026 (2026-09-11 UTC)

Documentation

Showing up to 5 results
|